Regional Weather Roundup
Issued by NWS

Home | Current Version | Previous Version | Text Only | Print | Product List | Glossary On
Versions: 1 2 3 4 5 6 7 8 9 10 11 12 13 14 15 16 17 18 19 20 21 22 23 24 25 26 27 28 29 30 31 32 33 34 35 36 37 38 39 40 41 42 43 44 45 46 47 48 49 50
000
ASHW40 PHFO 170643
RWRHI

WEATHER ROUNDUP FOR HAWAII
NATIONAL WEATHER SERVICE HONOLULU HI
800 PM HST SAT DEC 16 2017

THIS IS AN AUTOMATED REPORT THAT HAS NOT BEEN QUALITY CONTROLLED.

NOTE..."FAIR" INDICATES FEW OR NO CLOUDS BELOW 12,000 FEET WITH NO
SIGNIFICANT WEATHER AND/OR OBSTRUCTIONS TO VISIBILITY.

* - THESE SITES REPORT LIMITED FIELDS
# - BUOY DATA PROVIDED BY PACIFIC ISLANDS OCEAN OBSERVING SYSTEM.

HIZ001>004-170700-
KAUAI-NIIHAU-

CITY           SKY/WX    TMP DP  RH WIND       PRES   REMARKS
LIHUE APT      PTCLDY    63  63 100 W8        29.87R
PORT ALLEN*      N/A     66 N/A N/A N3          N/A
POIPU*           N/A     64 N/A N/A N3          N/A
PRINCEVILLE*   NOT AVBL
KOKOLE POINT*  NOT AVBL
MOLOAA DAIRY*    N/A     66  63  88 NW2         N/A
WAIMEA HTS*      N/A     68  61  77 VRB3        N/A
PUU OPAE*        N/A     59  55  88 NE3         N/A
PUU LUA*       NOT AVBL
MAKAHA RIDGE*    N/A     61  55  82 E2          N/A
$$

HIZ005>011-170700-
OAHU-

CITY           SKY/WX    TMP DP  RH WIND       PRES   REMARKS
HONOLULU       MOCLDY    72  63  73 NE3       29.88R
KALAELOA       PTCLDY    68  66  93 NE3       29.88R
KANEOHE MCB    PTCLDY    71  66  84 CALM      29.85R
WHEELER FIELD  NOT AVBL
BELLOWS*         N/A    N/A N/A N/A SW2         N/A
KAHUKU*          N/A    N/A N/A N/A E1          N/A
WHEELER*         N/A    N/A N/A N/A NE3         N/A
WAIANAE HARBOR   N/A    N/A N/A N/A E5          N/A
DILLINGHAM*    NOT AVBL
KAHUKU TRN*      N/A     77  73  88 N3          N/A
KAWAILOA*        N/A     64  61  88 E3          N/A
KII*             N/A     68  64  88 S3          N/A
MAKUA RANGE*     N/A     79  72  78 NW3         N/A
OAHU FOREST NW NOT AVBL
SCHOFIELD BRK*   N/A     73  70  88 NE1         N/A
SCHOFIELD S*   NOT AVBL
WAIANAE VLY*   NOT AVBL
KUAOKALA*      NOT AVBL
HONOULIUULI*   NOT AVBL
MOKUOLOE IS*   NOT AVBL
PALEHUA*         N/A     61  59  94 S3          N/A
WAIAWA PHB*    NOT AVBL
$$

HIZ012>013-170700-
MOLOKAI-

CITY           SKY/WX    TMP DP  RH WIND       PRES   REMARKS
MOLOKAI AIRPT  LGT RAIN  69  65  86 SW5       29.90R
KALAUPAPA      NOT AVBL
MAKAPULAPAI*     N/A     68  64  88 SE6         N/A
MOLOKAI 1*     NOT AVBL
PUU ALII*        N/A     51  51 100 SE2G12      N/A
$$

HIZ016-170700-
KAHOOLAWE-

CITY           SKY/WX    TMP DP  RH WIND       PRES   REMARKS
KAHOOLAWE*     NOT AVBL
HAKIOAWA*        N/A     65  63  94 MISG      30.32
HONOKANAIA*    NOT AVBL
KANELOA*         N/A     68  63  83 NW3G12    29.94R
KEALIALALO*    NOT AVBL
LUA MAKIKA*    NOT AVBL
$$

HIZ014>015-170700-
LANAI-

CITY           SKY/WX    TMP DP  RH WIND       PRES   REMARKS
LANAI CITY     FAIR      65  62  90 CALM      29.95R
LANAI 1*       NOT AVBL
$$

HIZ017>028-170700-
MAUI-

CITY           SKY/WX    TMP DP  RH WIND       PRES   REMARKS
KAHULUI        PTCLDY    67  65  93 SE6       29.89R
KAPALUA-W MAUI NOT AVBL
HANA AIRPORT   MOCLDY    64  64 100 CALM      29.94R
HANA*            N/A     66 N/A N/A S3          N/A
HALEAKALA SUMM   N/A     37  37 100 SW7         N/A
MAALAEA BAY*     N/A     68 N/A N/A N1          N/A
HALEAKALA*     NOT AVBL
KAUPO GAP*     NOT AVBL
KULA 1*          N/A    N/A N/A N/A SE14G24     N/A
$$

HIZ023>026-170700-
BIG ISLAND OF HAWAII COAST AND LOWER SLOPES-

CITY           SKY/WX    TMP DP  RH WIND       PRES   REMARKS
KAILUA KONA    MOCLDY    74  62  66 SE7       29.88R
HILO           CLOUDY    70  65  84 SW6       29.90R
HONOKAA*         N/A     63 N/A N/A VRB1        N/A
KAWAIHAE MWT*    N/A     75 N/A N/A E5          N/A
KAWAIHAE*        N/A     75 N/A N/A E2        29.90R
SOUTH POINT*     N/A     68 N/A N/A NW7         N/A
UPOLU AIRPORT* NOT AVBL
KAMUELA*       NOT AVBL
HAKALAU*         N/A     45  45 100 SE2         N/A
KALOKO-HONOKO*   N/A     73  64  73 E5        29.88R
PALI 2*          N/A     61  59  94 SW1         N/A
KEALAKOMO*       N/A     73  66  78 SE7         N/A
KAUPULEHU*       N/A    N/A N/A N/A NE2         N/A
KAPAPALA*        N/A     63  62  98 NW2         N/A
LOWER KAHUKU*    N/A     61  59  94 CALM        N/A
PUHE CS*         N/A     73  59  60 E3G9        N/A
PUHO CS*         N/A     69  65  88 E2          N/A
PTA KEAMUKU*     N/A     57  55  94 S1          N/A
WAIKOLOA*        N/A     64  63  94 SE3G12      N/A
$$

HIZ027>028-170700-
BIG ISLAND OF HAWAII INTERIOR AND SUMMMITS-

CITY           SKY/WX    TMP DP  RH WIND       PRES   REMARKS
BRADSHAW FIELD MOCLDY    54  52  94 W9        30.18S
MK VISITOR CEN   N/A     45  34  65 NE6         N/A
MAUNA KEA*       N/A     27  21  80 S39G53      N/A  WCI   8
MAUNA LOA*       N/A    N/A N/A N/A MISG        N/A
MAUNA LOA 1*   NOT AVBL
PTA KIPUKA*      N/A     70  68  94 NE9G16      N/A
PTA RANGE 17*    N/A     54  52  94 NE5G12      N/A
PTA WEST*        N/A     64  63  94 S5G10       N/A
NENE CABIN*      N/A     52  52 100 SW7G16      N/A
AHUMOA*          N/A     51  51 100 S15G25      N/A
PTA PORTABLE*  NOT AVBL
PUU MALI*        N/A     48 N/A N/A E3G9        N/A
$$

HIC003-170700-
NORTHWEST ISLANDS-

CITY           SKY/WX    TMP DP  RH WIND       PRES   REMARKS
MIDWAY ISLAND  PTCLDY    66  59  77 NE26G32   30.17R
MIDWAY NOS*      N/A     70 N/A N/A MISG      30.14R
FRENCH FRIGATE NOT AVBL
$$

PHZ110>124-180-170700-
BUOY REPORTS

STATION/POSITION TIME  TEMP    WIND        PRES    WAVE   SWELL
                       AIR SEA DIR/SP/G            HT/PER HT/DIR
                 (UTC) (F)     (DEG/KT/KT) (MB)    (FT/S) (FT/D)
BUOY 51001       0620   72 76   30/ 14/ 23 1012.7
BUOY 51101       0550   73 74   30/ 17/ 19 1012.3R   9/10   7/ 50
BUOY 51100       NOT AVBL
BUOY 51002       0620   76 78   80/  8/ 10 1011.8
BUOY 51003       0550   74 77  290/  2/  4 1011.5R   7/10   7/ 10
BUOY 51004       0620   77 78  140/ 12/ 16 1012.1
WAIMEA BAY#      0502      74                N/A     7/ 9   3/360
MOKAPU POINT#    0604      76                N/A     7/10   3/ 10
LANAI#           NOT AVBL
BARBERS PT 2#    NOT AVBL
PAUWELA#         0630      77                N/A     7/ 9   3
HILO#            0627      77                N/A     8/10   3/ 50
KANEOHE BAY#     NOT AVBL
KANEOHE BAY 2#   NOT AVBL
HANALEI#         0622      76                N/A     7/10   3/350
KAHULUI HARBOR   0612   70 75  150/  1/  2 1012.3
HONOLULU HARBOR  0612   71 77   80/  2/  4 1012.4
PEARL HARBOR#    0600      77                N/A     2/ 9
KILO NALU        NOT AVBL
HILO HARBOR      0612   70 77  220/  5/  7 1012.1
MOKUOLOE         0536   70 74   CALM  /  2 1011.5R
NAWILIWILI       0612   65 76  260/  7/  7 1011.5
WHOTS BUOY       NOT AVBL
BUOY 51028       NOT AVBL
$$

......................KEY........................................
  SKY/WX - SKY CONDITIONS/PRESENT WEATHER
  TMP    - TEMPERATURE IN FAHRENHEIT
  DWPT   - DEWPOINT IN FAHRENHEIT
  RH     - RELATIVE HUMIDITY IN PERCENT
  WIND   - DIRECTION AND SPEED /MPH FOR ISLANDS...KTS FOR BUOYS/
  PRES   - MEAN SEA LEVEL PRESSURE IN INCHES OF HG
  VSB    - VISIBILITY IN MILES
  HX     - HEAT INDEX
  WCI    - WIND CHILL INDEX
  VRB    - VARIABLE WIND DIRECTION
  N/A    - NOT AVAILABLE




USA.gov is the U.S. government's official web portal to all federal, state and local government web resources and services.